Wind_Speed
15 13 10 9 9 8 8 7 7 7 6 8 8 9 12 15 18 22 26 30 33 33 35 39 40 42 44 41 42 45 46 46 46 44 45 46 46 48 48 47 48 50 50 51
9 7 5 4 5 5 6 5 3 3 4 4 5 7 8 11 14 18 22 24 27 29 31 35 37 38 40 38 39 39 41 43 43 41 43 45 45 47 48 47 46 47 48 49
4 3 3 3 3 2 3 2 3 3 4 4 4 5 7 9 11 13 18 22 25 27 30 32 33 33 34 35 36 35 36 38 39 40 41 43 45 45 45 46 47 48 48 47
1 1 1 1 1 2 4 4 6 6 6 6 5 3 4 6 9 11 15 19 20 22 26 28 29 28 32 33 32 32 33 37 37 37 40 41 43 44 43 43 44 45 47 48
2 2 2 3 4 6 8 9 10 9 8 8 6 5 4 5 7 9 12 15 17 18 22 23 23 24 27 29 29 29 30 32 33 34 36 37 39 41 42 43 45 46 46 47
5 5 5 7 8 10 11 12 12 11 10 8 8 7 7 7 7 7 9 11 13 14 17 18 20 20 23 24 25 26 27 27 27 29 31 34 36 37 41 43 44 45 45 45
7 7 9 10 11 12 13 13 12 11 9 9 10 9 9 9 8 7 8 9 10 11 13 14 15 16 18 19 20 21 21 22 21 22 25 30 33 34 36 39 41 42 42 43
8 9 10 11 13 14 14 13 13 12 10 11 11 10 10 10 9 9 10 10 10 10 11 11 10 11 14 14 14 16 17 18 20 20 22 25 30 33 35 36 39 40 40 40
10 11 12 12 13 14 14 13 14 13 13 13 13 11 11 11 10 10 10 9 9 8 8 9 9 9 10 11 12 13 14 15 17 18 21 24 28 29 31 34 36 37 38 39
13 12 12 13 14 14 14 14 13 14 14 13 13 14 13 12 10 9 9 8 8 7 7 7 7 8 8 8 9 11 12 13 14 15 17 20 22 25 27 30 33 33 33 35
13 13 13 14 15 15 14 14 14 14 13 12 13 13 13 12 10 8 9 9 8 7 6 5 5 6 7 10 11 12 12 14 15 17 18 19 21 22 23 26 29 30 31 32
13 14 14 15 16 15 15 14 13 13 12 11 11 11 10 10 8 8 8 8 6 5 5 5 5 6 8 10 12 14 15 17 18 20 21 22 23 24 25 27 30 31 32 34
14 15 15 15 15 14 14 14 13 12 12 11 10 10 9 8 7 7 6 5 3 2 2 4 6 7 9 12 14 17 18 19 21 23 24 26 27 28 29 31 32 33 34 36
14 14 14 14 14 14 13 13 12 11 10 10 10 9 8 6 5 4 3 2 1 2 4 6 9 11 13 15 17 20 21 23 25 27 29 30 32 33 34 35 36 36 37 38
14 13 13 12 12 13 13 12 11 9 8 8 8 7 6 4 2 1 2 3 5 7 9 11 14 16 18 20 22 24 26 28 29 31 33 34 36 37 38 39 40 41 42 42
13 12 11 11 11 11 10 9 8 7 6 5 4 3 2 1 2 3 5 8 10 11 13 15 18 20 22 24 26 27 29 30 32 33 35 37 38 40 41 42 43 45 45 46
11 11 10 10 9 8 7 6 6 4 3 2 2 2 3 4 5 6 8 10 12 14 16 18 21 23 25 27 29 31 32 34 36 37 39 41 42 44 45 47 48 48 49 49
9 8 8 7 6 5 4 3 2 1 1 2 3 5 7 8 10 12 13 15 17 19 20 22 24 27 29 32 34 36 38 40 42 43 45 46 47 48 49 50 51 52 52 52
7 6 5 4 3 3 2 2 1 3 4 5 7 8 10 12 13 15 16 18 20 23 25 28 30 32 34 37 39 41 43 46 48 49 50 51 52 53 54 55 55 55 55 55
5 4 3 2 2 1 1 2 3 5 6 8 9 11 12 13 15 17 19 21 23 26 29 32 34 37 40 42 44 46 48 50 52 53 54 55 57 58 59 59 60 59 59 58
3 2 1 0 1 2 3 4 5 7 8 9 10 12 14 16 18 20 23 25 28 31 34 36 39 42 44 47 50 52 54 56 58 59 60 61 62 63 63 63 63 63 62 61
2 1 1 2 3 4 5 6 7 8 9 11 13 15 17 19 22 24 27 29 32 35 38 41 44 47 49 52 55 58 60 62 64 65 66 67 68 68 68 67 66 65 65 63
1 1 2 3 3 4 6 8 9 10 12 14 16 18 20 23 25 28 30 33 36 39 42 45 47 50 52 55 58 61 63 65 66 68 70 70 71 70 70 70 69 67 66 66
2 2 3 4 5 6 8 9 11 13 15 17 19 21 23 26 28 31 34 37 40 43 45 48 50 52 55 57 59 61 62 64 65 66 67 69 70 70 70 70 69 68 66 65
3 4 5 6 7 8 10 12 14 16 18 19 21 24 26 29 31 34 37 40 43 46 48 51 53 54 55 56 58 60 62 63 64 65 66 67 67 67 67 67 67 66 64 62
6 6 8 9 10 12 13 15 17 18 20 22 24 26 29 31 34 37 41 44 46 48 50 52 53 54 55 57 59 61 62 63 64 64 64 64 63 63 63 63 62 61 60 58
Wind_Direction
299 299 293 286 277 270 265 270 273 266 245 245 243 228 228 231 227 221 217 216 215 215 216 216 216 216 217 217 217 218 219 218 218 221 221 222 224 225 226 229 231 233 235 237
302 297 288 286 279 271 260 266 273 226 210 215 200 208 216 221 218 216 214 213 214 213 214 214 215 216 217 214 214 216 217 215 216 220 223 225 225 224 225 227 230 233 236 239
306 300 284 288 280 267 244 206 158 154 153 156 166 189 211 209 212 212 210 210 212 213 215 213 212 214 215 214 213 215 215 214 215 219 220 224 225 225 227 229 231 233 236 238
308 276 299 2 112 135 126 123 117 113 116 122 132 139 193 203 203 199 202 205 210 210 211 211 210 210 213 214 215 214 214 214 215 217 219 223 227 227 228 229 231 234 237 238
86 98 86 88 105 113 114 118 111 104 109 121 125 128 134 172 183 185 192 198 205 210 207 209 210 210 212 214 214 214 214 214 216 217 219 224 226 227 228 230 232 234 237 239
104 94 103 108 112 114 115 115 109 107 109 110 118 125 132 153 158 165 177 184 195 201 202 206 208 209 213 215 215 215 213 211 214 217 221 224 225 228 231 232 235 238 240 242
109 102 106 113 116 119 115 112 108 108 109 107 112 117 124 132 143 153 163 170 180 189 196 201 207 208 211 213 218 219 218 217 220 221 222 225 228 230 233 236 238 240 243 246
114 113 111 115 119 118 115 113 110 109 109 110 113 112 121 125 135 145 147 150 165 178 188 193 204 203 207 215 220 222 227 227 231 230 229 231 233 235 237 240 241 243 246 248
122 117 115 115 119 122 121 118 113 108 105 108 108 109 119 123 130 139 140 141 150 166 182 191 200 206 215 221 222 229 236 236 238 238 239 240 240 241 243 244 245 248 249 251
120 116 118 121 122 122 121 120 116 111 110 105 107 112 116 122 126 133 142 153 150 160 171 180 197 208 224 229 238 244 247 243 241 244 245 245 246 249 251 251 250 252 255 258
123 119 120 123 124 122 122 119 119 116 112 111 112 113 115 119 122 127 136 143 150 164 182 204 221 230 246 252 254 261 261 261 260 261 261 260 260 260 257 255 254 257 258 259
123 119 120 122 122 121 119 117 119 121 117 115 116 114 114 116 117 116 120 131 145 159 172 205 224 240 249 255 260 266 268 271 270 270 269 267 267 266 263 261 261 262 262 262
125 124 121 121 123 124 123 121 122 121 116 114 114 114 115 117 117 111 112 121 139 169 209 227 246 258 265 268 270 270 270 271 272 273 273 271 271 270 269 268 267 267 267 266
128 127 123 122 122 124 122 121 122 120 115 109 105 106 110 106 106 111 124 133 186 251 263 272 277 279 279 278 276 275 274 275 276 276 276 275 274 274 273 272 271 270 269 269
127 126 125 123 125 124 119 117 119 116 109 107 102 100 98 95 90 10 298 299 290 285 285 285 284 284 283 281 280 279 279 280 279 278 277 275 275 275 274 274 273 272 271 270
126 125 125 125 126 126 122 120 120 119 118 113 104 104 74 41 329 314 305 301 298 296 295 296 295 293 290 287 285 284 284 282 281 280 279 278 277 276 276 275 274 274 273 272
126 127 127 128 128 127 126 123 122 120 112 88 38 8 346 334 329 321 314 310 307 305 303 301 299 296 294 292 291 290 289 287 286 285 284 282 281 279 278 277 275 274 273 272
120 121 122 126 125 127 115 116 101 83 20 354 342 333 327 324 321 317 313 310 309 307 305 302 299 297 295 294 293 292 290 289 288 287 286 285 283 282 280 279 278 276 274 273
120 117 117 118 116 108 92 74 27 350 335 331 327 323 321 319 317 315 312 310 309 307 306 304 302 300 298 296 294 293 292 291 290 289 287 286 285 283 282 280 279 277 276 274
134 131 123 116 104 83 16 349 338 332 328 322 319 318 317 316 315 313 312 312 311 309 307 305 304 302 300 298 296 295 294 293 291 290 289 288 287 285 284 282 280 278 277 275
146 141 138 59 335 330 322 319 319 321 322 318 317 317 317 317 315 314 313 312 310 308 307 305 303 302 300 298 296 295 294 293 292 291 290 289 288 286 284 283 281 279 278 276
170 207 278 296 303 304 308 313 314 314 315 315 315 315 315 315 313 312 311 309 308 307 305 304 303 301 299 298 296 295 294 292 291 290 289 288 287 286 285 283 282 280 279 276
230 278 305 310 314 313 315 316 315 315 316 316 316 316 315 314 313 312 311 310 309 308 307 305 303 301 300 299 297 296 295 293 292 290 288 287 286 286 285 283 282 281 280 277
285 292 310 315 316 317 318 319 319 318 317 316 315 315 314 314 313 312 312 311 310 310 309 307 305 304 303 301 300 299 297 296 295 293 291 288 287 286 284 283 282 281 279 277
301 308 316 319 318 319 318 317 317 316 314 313 313 313 313 313 313 313 313 312 312 311 310 309 307 306 305 303 301 300 299 298 297 295 293 291 289 287 285 284 283 282 280 278
298 305 310 312 311 312 313 312 312 313 312 312 312 313 313 314 314 315 315 314 313 313 312 311 310 308 307 305 303 302 302 301 299 298 295 293 291 289 287 286 284 283 281 277
Height
5608 5607 5604 5603 5602 5602 5601 5601 5601 5602 5602 5603 5605 5607 5609 5611 5615 5619 5624 5630 5637 5643 5650 5656 5663 5670 5678 5685 5693 5700 5707 5713 5720 5725 5730 5735 5741 5746 5750 5754 5759 5764 5768 5771
5606 5604 5602 5601 5600 5600 5600 5600 5601 5602 5602 5604 5605 5607 5609 5612 5614 5618 5623 5629 5635 5641 5647 5653 5660 5667 5674 5681 5688 5695 5702 5708 5714 5719 5724 5730 5734 5738 5743 5747 5751 5756 5760 5764
5603 5603 5601 5600 5599 5599 5599 5600 5601 5602 5603 5605 5607 5609 5611 5613 5615 5619 5623 5628 5634 5640 5645 5651 5658 5664 5671 5677 5684 5690 5696 5702 5708 5713 5718 5723 5727 5731 5736 5740 5744 5748 5752 5756
5602 5601 5600 5599 5599 5599 5600 5601 5602 5603 5605 5607 5609 5611 5612 5614 5617 5620 5624 5629 5634 5639 5645 5650 5656 5662 5668 5674 5680 5686 5692 5698 5703 5707 5712 5717 5721 5726 5730 5733 5737 5741 5745 5748
5601 5601 5600 5600 5600 5600 5602 5603 5604 5606 5608 5610 5611 5613 5615 5616 5619 5622 5626 5631 5635 5640 5645 5650 5655 5661 5666 5671 5677 5683 5688 5693 5698 5703 5707 5711 5715 5719 5723 5727 5730 5734 5737 5741
5602 5601 5601 5601 5601 5602 5604 5606 5607 5609 5611 5613 5614 5616 5618 5619 5622 5625 5628 5632 5636 5640 5645 5650 5655 5660 5665 5670 5675 5680 5685 5689 5693 5698 5702 5706 5709 5713 5716 5720 5723 5727 5731 5734
5603 5603 5603 5603 5604 5605 5606 5609 5611 5612 5614 5616 5617 5618 5621 5622 5624 5627 5630 5634 5638 5642 5646 5651 5655 5660 5664 5669 5673 5677 5681 5686 5690 5693 5697 5701 5704 5707 5710 5714 5717 5720 5724 5726
5605 5606 5606 5606 5607 5608 5609 5611 5614 5616 5617 5619 5620 5621 5623 5624 5627 5630 5633 5636 5640 5644 5648 5652 5656 5660 5664 5668 5672 5675 5679 5683 5686 5690 5693 5696 5699 5702 5705 5708 5711 5714 5716 5719
5607 5609 5609 5609 5610 5612 5613 5614 5616 5618 5620 5622 5623 5624 5626 5628 5630 5633 5636 5639 5643 5646 5650 5653 5657 5660 5664 5667 5671 5674 5678 5680 5683 5686 5689 5691 5694 5696 5699 5702 5704 5707 5709 5711
5610 5611 5612 5613 5614 5616 5617 5617 5619 5621 5623 5625 5626 5627 5630 5631 5633 5636 5638 5641 5644 5648 5651 5654 5657 5660 5663 5666 5669 5672 5675 5677 5680 5682 5684 5686 5688 5691 5693 5695 5697 5699 5700 5702
5613 5615 5616 5617 5618 5619 5621 5622 5623 5624 5626 5628 5629 5633 5632 5634 5636 5639 5641 5643 5646 5649 5652 5654 5657 5660 5662 5665 5667 5669 5671 5673 5675 5677 5679 5681 5683 5684 5686 5687 5689 5690 5691 5693
5616 5618 5619 5620 5621 5622 5624 5625 5627 5628 5630 5631 5633 5637 5635 5637 5639 5641 5643 5645 5648 5650 5652 5655 5657 5659 5661 5663 5665 5667 5668 5670 5671 5672 5673 5674 5676 5677 5678 5679 5681 5681 5682 5683
5620 5622 5623 5624 5627 5627 5627 5628 5630 5632 5633 5635 5636 5640 5638 5640 5642 5643 5645 5647 5648 5650 5652 5654 5656 5658 5660 5661 5662 5663 5664 5665 5665 5666 5667 5668 5668 5669 5670 5670 5671 5671 5672 5672
5623 5625 5627 5629 5629 5629 5631 5632 5633 5635 5636 5637 5639 5640 5641 5643 5644 5645 5647 5648 5650 5651 5652 5653 5654 5655 5656 5657 5657 5657 5658 5658 5658 5659 5659 5659 5659 5659 5660 5660 5660 5660 5661 5661
5627 5628 5629 5631 5632 5633 5634 5635 5636 5638 5639 5641 5642 5642 5644 5645 5646 5647 5648 5648 5649 5650 5651 5652 5652 5652 5652 5652 5652 5651 5651 5650 5650 5650 5649 5649 5649 5648 5648 5648 5648 5648 5648 5648
5630 5632 5633 5634 5635 5636 5637 5638 5639 5640 5641 5642 5643 5645 5645 5646 5647 5647 5648 5648 5648 5648 5648 5648 5648 5647 5647 5646 5645 5644 5642 5641 5640 5639 5638 5638 5637 5636 5635 5635 5634 5634 5633 5633
5633 5635 5636 5637 5638 5639 5640 5641 5641 5642 5643 5644 5644 5646 5645 5646 5646 5646 5646 5646 5646 5646 5645 5644 5643 5642 5640 5638 5637 5635 5633 5632 5630 5628 5627 5625 5623 5622 5621 5620 5619 5619 5618 5618
5636 5637 5638 5639 5641 5641 5644 5642 5643 5643 5644 5644 5644 5645 5645 5645 5644 5644 5643 5643 5642 5641 5640 5639 5637 5635 5633 5630 5628 5625 5623 5620 5618 5616 5614 5611 5609 5607 5605 5604 5603 5601 5601 5600
5638 5639 5640 5641 5642 5643 5644 5643 5643 5644 5644 5644 5644 5643 5643 5642 5642 5641 5640 5639 5637 5636 5634 5632 5629 5626 5624 5621 5617 5614 5611 5607 5604 5602 5599 5596 5594 5591 5589 5587 5585 5584 5583 5582
5640 5641 5642 5642 5643 5643 5645 5644 5644 5645 5644 5643 5642 5642 5641 5640 5640 5639 5637 5635 5632 5630 5627 5624 5620 5616 5612 5609 5605 5601 5597 5593 5589 5586 5582 5578 5575 5573 5570 5567 5566 5564 5563 5562
5641 5642 5642 5643 5643 5644 5644 5644 5644 5645 5645 5642 5641 5640 5639 5638 5637 5635 5632 5629 5627 5624 5620 5616 5611 5607 5601 5596 5591 5587 5582 5577 5573 5568 5564 5559 5555 5552 5549 5546 5544 5542 5541 5541
5642 5642 5643 5643 5643 5646 5643 5643 5643 5643 5641 5640 5639 5637 5636 5634 5632 5629 5627 5623 5620 5616 5611 5606 5601 5595 5589 5583 5577 5571 5566 5560 5555 5549 5544 5539 5534 5530 5526 5524 5521 5519 5518 5518
5642 5643 5643 5643 5645 5643 5642 5641 5641 5640 5639 5637 5636 5634 5632 5630 5627 5624 5620 5616 5612 5607 5601 5595 5589 5583 5576 5569 5562 5555 5548 5541 5535 5529 5523 5517 5512 5508 5504 5501 5498 5496 5494 5493
5642 5642 5642 5642 5642 5641 5640 5639 5638 5637 5636 5634 5632 5630 5627 5624 5621 5617 5613 5608 5602 5596 5590 5583 5576 5569 5561 5553 5545 5537 5529 5522 5515 5508 5501 5495 5489 5485 5480 5477 5474 5472 5470 5469
5642 5641 5641 5640 5640 5639 5638 5637 5636 5634 5632 5630 5627 5624 5621 5618 5614 5609 5604 5598 5592 5585 5577 5570 5562 5554 5546 5537 5529 5520 5511 5503 5495 5488 5480 5473 5467 5462 5457 5453 5450 5447 5446 5443
5640 5640 5640 5639 5638 5637 5636 5634 5632 5630 5627 5625 5622 5618 5615 5610 5606 5600 5594 5587 5580 5572 5564 5556 5547 5539 5530 5521 5512 5502 5493 5484 5476 5468 5459 5452 5445 5439 5435 5431 5428 5424 5422 5421